sat.trackr.live / text

‹ back to catalog

BRO-11

NORAD 58264 · 2023-174J

PAYLOAD ACTIVE UNKNOWN

§ Identity

Operator
Country
FR
Launch date
2023-11-11
Launch site
AFWTR
Launch vehicle
Mass (kg)
RCS (m²)

External: N2YO · Heavens-Above · Gunter

§ Orbital elements

Epoch: 2026-05-25T04:25:12.095328Z

Period
94.30 min
Inclination
97.3906°
Eccentricity
0.0008684
Mean motion
15.27093853 rev/d
Perigee alt
478.5 km
Apogee alt
490.5 km
Semi-major
6,862.6 km
B*
1.7334e-4
RAAN
222.2432°
Arg perigee
291.6259°
Mean anomaly
68.4054°
Rev number
14,124

§ Raw data

BRO-111 58264U 23174J   26145.18416777  .00004536  00000+0  17334-3 0  99992 58264  97.3906 222.2432 0008684 291.6259  68.4054 15.27093853141240

JSON: /api/v1/satellites/58264 · /tle

For live sub-satellite position, see the globe view (requires WebGL).

§ Visibility from observer

Set your observer location to see the next 7 days of passes ≥ 10°. The values pass through the URL so the page stays shareable.

No JS? Fill the form by hand. The geolocation button needs JavaScript.

§ Radio — SatNOGS DB

ModeDescriptionDownlinkUplink
BPSK Mode S - Transmitter 2.261 GHz
FSK AX.100 Mode 5 Mode U - FSK9k6 401.700 MHz
FSK AX.100 Mode 5 Mode U - FSK9k6 - TLM 401.735 MHz
FSK AX.100 Mode 5 Mode U - FSK4k8 - TLM (inactive) 401.735 MHz

4 transmitters · refreshed weekly from db.satnogs.org